[[{"header":{"parameterUnit":"m.s-1","parameterCategory":1,"la1":30.2991,"la2":30.254,"lo1":-89.0895,"lo2":-89.0444,"dy":0.0017,"dx":0.0017,"nx":28,"ny":28,"refTime":"2024-10-15T21:00:00:Z","depth":0,"parameterNumber":2,"parameterNumberName":"U-component_of_WINDS"},"data":[0,0,0,0,0,0,0,0,0,0,0,0,0,0,0,0,0,0,0,0,0,0,0,0,0,0,0,0,0,0,0,0,0,0,0,0,0,0,0,0,0,0,0,0,0,0,0,0,0,0,0,0,0,0,0,0,0,0,-3.701,-3.7009,0,-3.6959,-3.6958,-3.6957,-3.6853,-3.6851,-3.6848,-3.6847,-3.6796,-3.6796,-3.6797,0,0,0,0,0,0,0,0,0,0,0,0,0,-3.7018,-3.7018,-3.701,-3.7009,-3.7008,-3.6959,-3.6958,-3.6957,-3.6853,-3.685,-3.6848,-3.6846,-3.6796,-3.6796,-3.6797,0,0,0,0,0,0,0,0,0,0,0,0,0,-3.6995,-3.7018,-3.701,-3.695,-3.6944,-3.6959,-3.6958,-3.6957,-3.6854,-3.685,-3.6847,-3.6844,-3.6795,-3.6796,-3.6797,-3.6866,0,0,-3.68,-3.68,0,0,0,0,0,0,0,0,-3.6997,-3.6995,-3.696,-3.6954,-3.6948,-3.6909,-3.6942,-3.6926,-3.6854,-3.6888,-3.6846,-3.6843,-3.6836,-3.6833,-3.6831,-3.6863,-3.6861,-3.68,-3.68,-3.6801,-3.6801,0,0,0,0,0,0,0,-3.6998,-3.6997,-3.6989,-3.6959,-3.6952,-3.6926,-3.692,-3.6939,-3.688,-3.6885,-3.6877,-3.6873,-3.6832,-3.683,-3.6829,-3.686,-3.68,-3.6801,-3.6801,-3.6802,-3.6944,-3.6947,0,0,0,0,0,0,-3.7008,-3.6999,-3.6991,-3.6988,-3.6965,-3.6929,-3.6921,-3.6925,-3.688,-3.687,-3.6875,-3.6868,-3.683,-3.6828,-3.6827,-3.6902,-3.6801,-3.6802,-3.6802,-3.6941,-3.6945,-3.6948,0,0,0,0,0,0,-3.7009,-3.7009,-3.6993,-3.6991,-3.6987,-3.6932,-3.6936,-3.6925,-3.6923,-3.6872,-3.6862,-3.6884,-3.6828,-3.6825,-3.6856,-3.6899,-3.6802,-3.6803,-3.6937,-3.6942,-3.6947,-3.7055,0,0,0,0,0,0,-3.701,-3.701,-3.7035,-3.6992,-3.6988,-3.7024,-3.6939,-3.6926,-3.6925,-3.6914,-3.6878,-3.6869,-3.6825,-3.6855,-3.6857,-3.6898,-3.6804,-3.6933,-3.6939,-3.6945,-3.7047,-3.7063,-3.7076,0,0,0,0,0,-3.701,-3.7068,-3.7037,-3.7036,-3.7018,-3.7026,-3.7023,-3.6972,-3.6929,-3.6953,-3.6921,-3.687,-3.6894,-3.6859,-3.686,-3.6903,-3.693,-3.6938,-3.6945,-3.7041,-3.706,-3.7076,0,0,0,0,0,0,-3.7118,-3.7061,-3.7026,-3.7072,-3.7055,-3.7009,-3.7038,-3.6994,-3.6989,-3.698,-3.6916,-3.6909,-3.6948,-3.6928,-3.689,-3.6966,-3.6904,-3.6912,-3.6977,-3.6994,-3.7008,-3.7012,-3.6804,0,0,0,0,0,-3.7147,-3.7158,-3.7108,-3.7153,-3.7146,-3.7094,-3.7096,-3.7057,-3.7037,-3.7029,-3.6999,-3.6982,-3.6985,-3.6989,-3.6989,-3.7044,-3.7034,-3.7074,-3.7088,-3.7101,-3.7108,-3.7133,-3.715,-3.6972,-3.6972,-3.6972,0,0,-3.7207,-3.7177,-3.7188,-3.7174,-3.7156,-3.7169,-3.7089,-3.7106,-3.7114,-3.7032,-3.7058,-3.7036,-3.7012,-3.7055,-3.7072,-3.704,-3.7154,-3.711,-3.712,-3.712,-3.7143,-3.7159,-3.7174,-3.6977,-3.6977,-3.6976,0,0,-3.7322,-3.7301,-3.7336,-3.7319,-3.7293,-3.7257,-3.7266,-3.7227,-3.7208,-3.7234,-3.7172,-3.7181,-3.7189,-3.7174,-3.7168,-3.7277,-3.7229,-3.7279,-3.7354,-3.738,-3.7394,-3.7406,-3.7443,-3.7458,-3.7287,-3.7287,-3.7287,0,-3.74,-3.7416,-3.7359,-3.738,-3.7375,-3.73,-3.7334,-3.7321,-3.7297,-3.7295,-3.726,-3.7267,-3.7246,-3.7283,-3.731,-3.7308,-3.7314,-3.7282,-3.7397,-3.7408,-3.7419,-3.7453,-3.7468,-3.7293,-3.7292,-3.7292,-3.7291,0,-3.7512,-3.7524,-3.7555,-3.7532,-3.7531,-3.7559,-3.7506,-3.7512,-3.7474,-3.7443,-3.7469,-3.7441,-3.7434,-3.744,-3.7404,-3.7472,-3.7453,-3.7408,-3.7345,-3.7443,-3.7474,-3.7487,-3.7302,-3.73,-3.7298,-3.7296,0,0,-3.7693,-3.7638,-3.765,-3.7638,-3.7603,-3.7611,-3.7636,-3.7628,-3.7633,-3.7619,-3.7637,-3.7645,-3.7603,-3.7596,-3.7557,-3.758,-3.7666,-3.7532,-3.753,-3.7556,-3.7737,-3.777,-3.7786,-3.7635,-3.7637,-3.7639,-3.7739,0,-3.7799,-3.7835,-3.7785,-3.7833,-3.7843,-3.7772,-3.7793,-3.7774,-3.7746,-3.775,-3.7718,-3.7724,-3.7669,-3.7664,-3.7684,-3.7651,-3.7701,-3.7644,-3.7649,-3.765,-3.7656,-3.7803,-3.7838,-3.7933,-3.7751,-3.7753,-3.7754,0,-3.7927,-3.7918,-3.7967,-3.7927,-3.793,-3.7949,-3.7937,-3.7943,-3.792,-3.7897,-3.7889,-3.7842,-3.7862,-3.7802,-3.7828,-3.779,-3.779,-3.7774,-3.7777,-3.7774,-3.7707,-3.7802,-3.7963,-3.7977,-3.7774,-3.7772,-3.7771,0,-3.8051,-3.8052,-3.808,-3.8073,-3.8028,-3.8043,-3.8026,-3.7999,-3.7998,-3.7988,-3.7985,-3.7979,-3.7975,-3.797,-3.7923,-3.7883,-3.7954,-3.789,-3.7935,-3.7937,-3.7952,-3.7951,-3.8113,-3.7955,-3.7955,-3.7955,-3.7955,0,-3.8174,-3.8206,-3.8135,-3.8153,-3.8187,-3.8129,-3.8164,-3.8139,-3.8116,-3.8127,-3.8067,-3.8079,-3.8016,-3.8021,-3.7984,-3.8011,-3.801,-3.7991,-3.7981,-3.7996,-3.7998,-3.7993,-3.7985,-3.7959,-3.7958,-3.7957,-3.7956,0,-3.8318,-3.8272,-3.8298,-3.8254,-3.8244,-3.8271,-3.8232,-3.8247,-3.8214,-3.8229,-3.8229,-3.8179,-3.8181,-3.8134,-3.8127,-3.8102,-3.8145,-3.8123,-3.8152,-3.8145,-3.8191,-3.8187,-3.8354,-3.8372,-3.8205,-3.8207,-3.8209,0,-3.8399,-3.8421,-3.8379,-3.8382,-3.8367,-3.8373,-3.837,-3.8315,-3.8314,-3.8289,-3.8306,-3.8304,-3.8299,-3.8306,-3.8269,-3.8263,-3.824,-3.8299,-3.8239,-3.8252,-3.8238,-3.8237,-3.8238,-3.8311,-3.8313,-3.8315,-3.8316,0,-3.8545,-3.8521,-3.852,-3.851,-3.8509,-3.8499,-3.8485,-3.8491,-3.843,-3.8433,-3.8434,-3.843,-3.8423,-3.8421,-3.8408,-3.839,-3.8343,-3.8336,-3.8345,-3.836,-3.8375,-3.8365,-3.8185,-3.8332,-3.833,-3.8329,-3.8328,-3.8328,-3.8658,-3.8675,-3.8647,-3.8647,-3.8631,-3.8619,-3.863,-3.8598,-3.8598,-3.8588,-3.8555,-3.8562,-3.8537,-3.8515,-3.85,-3.8505,-3.8475,-3.849,-3.8493,-3.8497,-3.8505,-3.8376,-3.8502,-3.8502,-3.8501,-3.8501,-3.8501,0,-3.88,-3.8779,-3.878,-3.8761,-3.8761,-3.8717,-3.87,-3.8702,-3.8709,-3.869,-3.8685,-3.8687,-3.8684,-3.8646,-3.8639,-3.865,-3.8628,-3.8649,-3.8647,-3.8643,-3.8533,-3.8524,-3.8667,-3.8667,-3.8667,-3.8667,-3.8667,-3.8667,-3.8874,-3.8898,-3.8871,-3.8887,-3.8865,-3.8871,-3.8865,-3.8853,-3.8837,-3.8841,-3.8838,-3.8814,-3.8786,-3.8776,-3.8772,-3.8761,-3.876,-3.8789,-3.877,-3.8667,-3.8651,-3.8636,-3.8627,-3.879,-3.879,-3.888,-3.8881,-3.8881]},{"header":{"parameterUnit":"m.s-1","parameterCategory":1,"la1":30.2991,"la2":30.254,"lo1":-89.0895,"lo2":-89.0444,"dy":0.0017,"dx":0.0017,"nx":28,"ny":28,"refTime":"2024-10-15T21:00:00:Z","depth":0,"parameterNumber":3,"parameterNumberName":"V-component_of_WINDS"},"data":[0,0,0,0,0,0,0,0,0,0,0,0,0,0,0,0,0,0,0,0,0,0,0,0,0,0,0,0,0,0,0,0,0,0,0,0,0,0,0,0,0,0,0,0,0,0,0,0,0,0,0,0,0,0,0,0,0,0,-5.5231,-5.5232,0,-5.5319,-5.532,-5.5321,-5.5293,-5.5292,-5.529,-5.5288,-5.537,-5.5374,-5.5378,0,0,0,0,0,0,0,0,0,0,0,0,0,-5.5033,-5.5037,-5.5231,-5.5232,-5.5233,-5.5318,-5.532,-5.5321,-5.5294,-5.5292,-5.5289,-5.5287,-5.5369,-5.5374,-5.5378,0,0,0,0,0,0,0,0,0,0,0,0,0,-5.5119,-5.5038,-5.5231,-5.523,-5.5231,-5.5318,-5.532,-5.5321,-5.5294,-5.5291,-5.5289,-5.5286,-5.5368,-5.5373,-5.5379,-5.547,0,0,-5.5397,-5.5399,0,0,0,0,0,0,0,0,-5.5115,-5.5127,-5.5229,-5.523,-5.5231,-5.5292,-5.528,-5.5371,-5.5295,-5.527,-5.5288,-5.5285,-5.5346,-5.5354,-5.5376,-5.5474,-5.5477,-5.5397,-5.5401,-5.5404,-5.5405,0,0,0,0,0,0,0,-5.5109,-5.5123,-5.5265,-5.5231,-5.5232,-5.5223,-5.5232,-5.5297,-5.5322,-5.5272,-5.527,-5.5281,-5.5346,-5.537,-5.5378,-5.5479,-5.5397,-5.5402,-5.5406,-5.5408,-5.5654,-5.5657,0,0,0,0,0,0,-5.5103,-5.5118,-5.5263,-5.5268,-5.5165,-5.5229,-5.5239,-5.5275,-5.5321,-5.5326,-5.5284,-5.528,-5.5362,-5.5371,-5.538,-5.5488,-5.5403,-5.5409,-5.5412,-5.5651,-5.5654,-5.5658,0,0,0,0,0,0,-5.5099,-5.5116,-5.5259,-5.5193,-5.521,-5.5235,-5.5276,-5.5279,-5.5303,-5.533,-5.5334,-5.5304,-5.536,-5.5372,-5.5448,-5.5491,-5.5412,-5.5417,-5.5647,-5.5652,-5.5656,-5.5706,0,0,0,0,0,0,-5.5093,-5.5115,-5.5151,-5.5194,-5.5214,-5.5327,-5.5279,-5.5282,-5.5314,-5.531,-5.535,-5.5354,-5.5359,-5.544,-5.5454,-5.5497,-5.5421,-5.5643,-5.5649,-5.5655,-5.57,-5.5711,-5.5721,0,0,0,0,0,-5.5086,-5.516,-5.5153,-5.5171,-5.526,-5.533,-5.5341,-5.5347,-5.5317,-5.5353,-5.5371,-5.5353,-5.5485,-5.5448,-5.5463,-5.5509,-5.5641,-5.5648,-5.5654,-5.5696,-5.5709,-5.5721,0,0,0,0,0,0,-5.5119,-5.5166,-5.5158,-5.5249,-5.5286,-5.5325,-5.537,-5.5361,-5.5405,-5.5399,-5.5402,-5.5411,-5.5489,-5.5507,-5.5465,-5.5599,-5.5558,-5.5568,-5.5584,-5.5597,-5.5607,-5.56,-5.5426,0,0,0,0,0,-5.5138,-5.5193,-5.523,-5.5306,-5.5325,-5.5345,-5.5375,-5.5377,-5.5414,-5.5429,-5.5452,-5.5487,-5.5536,-5.5568,-5.5615,-5.5704,-5.5711,-5.5743,-5.5753,-5.5762,-5.577,-5.5816,-5.583,-5.568,-5.568,-5.568,0,0,-5.5175,-5.5207,-5.5241,-5.5313,-5.5342,-5.5397,-5.5358,-5.5417,-5.5457,-5.5437,-5.551,-5.5529,-5.5568,-5.565,-5.5688,-5.5668,-5.5813,-5.577,-5.5777,-5.578,-5.5825,-5.5839,-5.5851,-5.5685,-5.5684,-5.5683,0,0,-5.527,-5.5302,-5.5368,-5.5398,-5.5444,-5.5457,-5.5473,-5.5514,-5.5526,-5.56,-5.5586,-5.5632,-5.5717,-5.5745,-5.577,-5.5878,-5.5862,-5.5893,-5.5945,-5.5991,-5.6003,-5.6013,-5.6049,-5.6062,-5.5901,-5.5902,-5.5902,0,-5.531,-5.5394,-5.5402,-5.5464,-5.5495,-5.5482,-5.5548,-5.5576,-5.5633,-5.5654,-5.5632,-5.5738,-5.5763,-5.5851,-5.5878,-5.59,-5.5916,-5.5887,-5.6001,-5.6011,-5.6021,-5.6055,-5.6069,-5.5905,-5.5904,-5.5904,-5.5904,0,-5.5439,-5.5498,-5.5546,-5.5604,-5.5641,-5.5704,-5.5719,-5.5755,-5.5754,-5.5768,-5.5843,-5.5874,-5.5926,-5.5947,-5.5945,-5.6035,-5.6021,-5.6,-5.5958,-5.6038,-5.607,-5.6084,-5.5909,-5.5908,-5.5907,-5.5907,0,0,-5.5555,-5.5619,-5.5636,-5.5662,-5.5712,-5.5756,-5.5818,-5.5871,-5.5901,-5.5941,-5.5991,-5.6064,-5.6045,-5.6074,-5.6075,-5.6115,-5.6196,-5.6089,-5.609,-5.6105,-5.6293,-5.6307,-5.6322,-5.6187,-5.619,-5.6192,-5.6289,0,-5.5653,-5.5764,-5.5774,-5.5873,-5.5926,-5.5915,-5.5969,-5.6004,-5.6019,-5.6064,-5.608,-5.6131,-5.6104,-5.6121,-5.616,-5.6177,-5.6233,-5.6171,-5.623,-5.6232,-5.6218,-5.6339,-5.6353,-5.6444,-5.6302,-5.6304,-5.6305,0,-5.5781,-5.5828,-5.5932,-5.5975,-5.5997,-5.6045,-5.6095,-5.6139,-5.6178,-5.6186,-5.6219,-5.6216,-5.6276,-5.6235,-5.6317,-5.6275,-5.63,-5.6312,-5.6316,-5.6319,-5.6272,-5.6342,-5.6473,-5.6485,-5.6326,-5.6324,-5.6323,0,-5.5852,-5.5941,-5.6015,-5.6038,-5.6089,-5.6123,-5.6146,-5.6182,-5.6214,-5.6256,-5.6276,-5.6325,-5.6351,-5.6387,-5.6395,-5.6365,-5.6477,-5.6437,-5.6483,-5.6482,-5.6504,-5.6502,-5.6637,-5.6525,-5.6525,-5.6525,-5.6525,0,-5.5958,-5.6022,-5.6047,-5.6092,-5.6163,-5.6173,-5.6242,-5.6262,-5.6295,-5.6342,-5.6336,-5.6379,-5.6389,-5.6434,-5.6441,-5.6507,-5.6519,-5.6525,-5.6526,-5.6524,-5.6523,-5.6538,-5.6531,-5.6529,-5.6528,-5.6527,-5.6526,0,-5.6047,-5.6068,-5.6147,-5.6191,-5.6203,-5.6253,-5.6289,-5.6331,-5.6347,-5.6406,-5.642,-5.6444,-5.6496,-5.6509,-5.6571,-5.6576,-5.6653,-5.6649,-5.664,-5.6639,-5.6683,-5.6678,-5.6831,-5.685,-5.6728,-5.6729,-5.673,0,-5.6112,-5.6162,-5.6211,-5.6244,-5.6269,-5.6321,-5.6354,-5.6366,-5.6399,-5.6448,-5.6483,-5.6536,-5.6578,-5.6662,-5.6683,-5.673,-5.6725,-5.6776,-5.6732,-5.6728,-5.6722,-5.6718,-5.6722,-5.6782,-5.6784,-5.6785,-5.6786,0,-5.6224,-5.6233,-5.6282,-5.6334,-5.6374,-5.6416,-5.6455,-5.6481,-5.6498,-5.6536,-5.6592,-5.6625,-5.669,-5.674,-5.6788,-5.6808,-5.6799,-5.68,-5.6813,-5.681,-5.6802,-5.6804,-5.666,-5.6796,-5.6795,-5.6794,-5.6793,-5.6793,-5.6302,-5.6345,-5.6387,-5.6441,-5.6473,-5.651,-5.6552,-5.6574,-5.6621,-5.6676,-5.668,-5.6739,-5.6776,-5.6839,-5.6863,-5.6907,-5.6891,-5.691,-5.6914,-5.6918,-5.6921,-5.6798,-5.6916,-5.6916,-5.6916,-5.6915,-5.6915,0,-5.6411,-5.6438,-5.6489,-5.6546,-5.6588,-5.658,-5.6623,-5.6658,-5.6711,-5.6748,-5.679,-5.6853,-5.6903,-5.6928,-5.6977,-5.7008,-5.7004,-5.702,-5.7016,-5.702,-5.6934,-5.6917,-5.7021,-5.7021,-5.7021,-5.7021,-5.7021,-5.7021,-5.6473,-5.6545,-5.6558,-5.6644,-5.667,-5.6731,-5.6756,-5.6789,-5.6818,-5.6889,-5.6932,-5.695,-5.6981,-5.7032,-5.7076,-5.7083,-5.7099,-5.7116,-5.712,-5.7037,-5.7026,-5.7016,-5.7,-5.7121,-5.7121,-5.7202,-5.7203,-5.7204]}]]